| time (UTC) | temp C | wind direction | speed KPH | gust KPH | rain 1hr cm | rain 24hr cm | rain mn cm | humidity % | barometer mb |
| 20260905072054 | 21 | 0 | 0.0 | 1.6 | 0.00 | 0.05 | 0.00 | 82 | 1021.2 |
| 20260905071608 | 21 | 0 | 0.0 | 1.6 | 0.00 | 0.05 | 0.00 | 82 | 1021.3 |
| 20260905071054 | 21 | 0 | 0.0 | 1.6 | 0.00 | 0.05 | 0.00 | 82 | 1021.3 |
| 20260905070554 | 21 | 0 | 0.0 | 1.6 | 0.00 | 0.05 | 0.00 | 81 | 1021.3 |
| 20260905070105 | 21 | 0 | 0.0 | 1.6 | 0.00 | 0.05 | 0.00 | 81 | 1021.2 |
| 20260905065554 | 21 | 0 | 0.0 | 1.6 | 0.00 | 0.05 | 0.05 | 80 | 1021.3 |
| 20260905065054 | 21 | 0 | 0.0 | 1.6 | 0.00 | 0.05 | 0.05 | 80 | 1021.5 |
| 20260905064601 | 21 | 0 | 0.0 | 1.6 | 0.00 | 0.05 | 0.05 | 79 | 1021.4 |
| 20260905064054 | 21 | 0 | 0.0 | 1.6 | 0.00 | 0.05 | 0.05 | 79 | 1021.5 |
| 20260905063555 | 21 | 0 | 0.0 | 1.6 | 0.00 | 0.05 | 0.05 | 78 | 1021.4 |
| 20260905063111 | 21 | 0 | 0.0 | 1.6 | 0.00 | 0.05 | 0.05 | 78 | 1021.4 |
| 20260905062552 | 21 | 0 | 0.0 | 1.6 | 0.00 | 0.05 | 0.05 | 78 | 1021.4 |
| 20260905062055 | 21 | 0 | 0.0 | 3.2 | 0.00 | 0.05 | 0.05 | 78 | 1021.4 |
| 20260905061615 | 21 | 75 | 0.0 | 3.2 | 0.00 | 0.05 | 0.05 | 79 | 1021.5 |
| 20260905061055 | 22 | 0 | 0.0 | 1.6 | 0.00 | 0.05 | 0.05 | 79 | 1021.5 |
| 20260905060554 | 22 | 0 | 0.0 | 3.2 | 0.00 | 0.05 | 0.05 | 78 | 1021.5 |
| 20260905055554 | 22 | 75 | 0.0 | 3.2 | 0.00 | 0.05 | 0.05 | 77 | 1021.4 |
| 20260905055054 | 22 | 0 | 0.0 | 3.2 | 0.00 | 0.05 | 0.05 | 76 | 1021.4 |
| 20260905054600 | 22 | 0 | 0.0 | 3.2 | 0.00 | 0.05 | 0.05 | 76 | 1021.5 |
| 20260905054054 | 22 | 75 | 1.6 | 3.2 | 0.00 | 0.05 | 0.05 | 76 | 1021.5 |
| 20260905053554 | 22 | 0 | 0.0 | 4.8 | 0.00 | 0.05 | 0.05 | 75 | 1021.4 |
| 20260905053105 | 22 | 0 | 0.0 | 8.0 | 0.00 | 0.05 | 0.05 | 75 | 1021.4 |
| 20260905052554 | 22 | 75 | 3.2 | 8.0 | 0.00 | 0.05 | 0.05 | 74 | 1021.4 |
| 20260905052055 | 22 | 61 | 3.2 | 6.4 | 0.00 | 0.05 | 0.05 | 73 | 1021.3 |
| 20260905051605 | 23 | 60 | 4.8 | 6.4 | 0.00 | 0.05 | 0.05 | 70 | 1021.3 |
| 20260905051054 | 23 | 63 | 3.2 | 6.4 | 0.00 | 0.05 | 0.05 | 67 | 1021.3 |
| 20260905050555 | 23 | 295 | 3.2 | 6.4 | 0.00 | 0.05 | 0.05 | 65 | 1021.3 |
| 20260905045556 | 24 | 253 | 0.0 | 4.8 | 0.00 | 0.05 | 0.05 | 62 | 1021.3 |
| 20260905045054 | 24 | 0 | 0.0 | 3.2 | 0.00 | 0.05 | 0.05 | 61 | 1021.2 |
| 20260905044603 | 24 | 0 | 0.0 | 3.2 | 0.00 | 0.05 | 0.05 | 59 | 1021.1 |
| 20260905044053 | 24 | 0 | 0.0 | 4.8 | 0.00 | 0.05 | 0.05 | 59 | 1021.1 |
| 20260905043556 | 25 | 0 | 0.0 | 4.8 | 0.00 | 0.05 | 0.05 | 58 | 1021.1 |
| 20260905043100 | 25 | 253 | 1.6 | 4.8 | 0.00 | 0.05 | 0.05 | 58 | 1021.1 |
| 20260905042553 | 25 | 253 | 0.0 | 4.8 | 0.00 | 0.05 | 0.05 | 58 | 1021.2 |
| 20260905042055 | 25 | 0 | 1.6 | 4.8 | 0.00 | 0.05 | 0.05 | 57 | 1021.2 |
| 20260905041613 | 25 | 253 | 0.0 | 4.8 | 0.00 | 0.05 | 0.05 | 57 | 1021.2 |
| 20260905041053 | 25 | 253 | 0.0 | 4.8 | 0.00 | 0.05 | 0.05 | 57 | 1021.2 |
| 20260905040553 | 25 | 253 | 0.0 | 4.8 | 0.00 | 0.05 | 0.05 | 57 | 1021.2 |
| 20260905040105 | 25 | 253 | 1.6 | 4.8 | 0.00 | 0.05 | 0.05 | 56 | 1021.3 |
| 20260905035554 | 25 | 253 | 1.6 | 4.8 | 0.00 | 0.05 | 0.05 | 56 | 1021.3 |
| 20260905035053 | 24 | 253 | 3.2 | 4.8 | 0.00 | 0.05 | 0.05 | 56 | 1021.1 |
| 20260905034605 | 24 | 253 | 1.6 | 4.8 | 0.00 | 0.05 | 0.05 | 58 | 1021.1 |
| 20260905034055 | 24 | 255 | 1.6 | 4.8 | 0.00 | 0.05 | 0.05 | 59 | 1021.1 |
| 20260905033552 | 24 | 255 | 1.6 | 4.8 | 0.00 | 0.05 | 0.05 | 60 | 1021.1 |
| 20260905033122 | 24 | 255 | 0.0 | 4.8 | 0.00 | 0.05 | 0.05 | 60 | 1021.0 |
| 20260905032556 | 24 | 255 | 1.6 | 4.8 | 0.00 | 0.05 | 0.05 | 60 | 1021.0 |
| 20260905032055 | 24 | 255 | 1.6 | 4.8 | 0.00 | 0.05 | 0.05 | 60 | 1020.9 |
| 20260905031611 | 24 | 255 | 1.6 | 4.8 | 0.00 | 0.05 | 0.05 | 61 | 1020.7 |
| 20260905031054 | 24 | 255 | 1.6 | 4.8 | 0.00 | 0.05 | 0.05 | 61 | 1020.6 |
| 20260905030554 | 25 | 255 | 3.2 | 4.8 | 0.00 | 0.05 | 0.05 | 60 | 1020.6 |
| 20260905030109 | 25 | 255 | 1.6 | 6.4 | 0.00 | 0.05 | 0.05 | 60 | 1020.4 |
| 20260905025554 | 25 | 0 | 1.6 | 6.4 | 0.00 | 0.05 | 0.05 | 59 | 1020.4 |
| 20260905025054 | 25 | 257 | 3.2 | 4.8 | 0.00 | 0.05 | 0.05 | 59 | 1020.3 |
| 20260905024602 | 25 | 243 | 1.6 | 4.8 | 0.00 | 0.05 | 0.05 | 58 | 1020.3 |
| 20260905024054 | 25 | 243 | 1.6 | 4.8 | 0.00 | 0.05 | 0.05 | 58 | 1020.2 |
| 20260905023557 | 25 | 243 | 1.6 | 6.4 | 0.00 | 0.05 | 0.05 | 58 | 1020.1 |
| 20260905023105 | 25 | 243 | 1.6 | 6.4 | 0.00 | 0.05 | 0.05 | 59 | 1020.1 |
| 20260905022557 | 25 | 243 | 3.2 | 6.4 | 0.00 | 0.05 | 0.05 | 59 | 1020.1 |
| 20260905022054 | 25 | 244 | 3.2 | 6.4 | 0.00 | 0.05 | 0.05 | 59 | 1020.0 |
| 20260905021600 | 25 | 220 | 3.2 | 8.0 | 0.00 | 0.05 | 0.05 | 59 | 1020.0 |
| 20260905021056 | 25 | 219 | 3.2 | 8.0 | 0.00 | 0.05 | 0.05 | 59 | 1019.9 |
| 20260905020557 | 25 | 229 | 3.2 | 9.7 | 0.00 | 0.05 | 0.05 | 58 | 1019.9 |
| 20260905020112 | 25 | 229 | 3.2 | 9.7 | 0.00 | 0.05 | 0.05 | 58 | 1019.9 |
| 20260905015555 | 26 | 224 | 3.2 | 9.7 | 0.00 | 0.05 | 0.05 | 57 | 1020.0 |
| 20260905015055 | 26 | 253 | 1.6 | 4.8 | 0.00 | 0.05 | 0.05 | 54 | 1020.0 |
| 20260905014605 | 26 | 0 | 0.0 | 3.2 | 0.00 | 0.05 | 0.05 | 55 | 1019.9 |
| 20260905014054 | 26 | 0 | 0.0 | 0.0 | 0.00 | 0.05 | 0.05 | 54 | 1020.0 |
| 20260905013554 | 26 | 0 | 0.0 | 0.0 | 0.00 | 0.05 | 0.05 | 53 | 1019.9 |
| 20260905013112 | 26 | 0 | 0.0 | 0.0 | 0.00 | 0.05 | 0.05 | 53 | 1020.0 |
| 20260905012554 | 26 | 0 | 0.0 | 0.0 | 0.00 | 0.05 | 0.05 | 52 | 1020.1 |
| 20260905012053 | 26 | 0 | 0.0 | 0.0 | 0.00 | 0.05 | 0.05 | 52 | 1020.0 |
| 20260905011632 | 26 | 0 | 0.0 | 3.2 | 0.00 | 0.05 | 0.05 | 51 | 1020.0 |
| 20260905011055 | 26 | 0 | 0.0 | 3.2 | 0.00 | 0.05 | 0.05 | 52 | 1019.9 |
| 20260905010553 | 27 | 0 | 0.0 | 3.2 | 0.00 | 0.05 | 0.05 | 52 | 1019.9 |
| 20260905010105 | 27 | 0 | 0.0 | 3.2 | 0.00 | 0.05 | 0.05 | 52 | 1019.8 |
| 20260905005551 | 27 | 0 | 1.6 | 4.8 | 0.00 | 0.05 | 0.05 | 51 | 1019.8 |
| 20260905005053 | 27 | 283 | 0.0 | 4.8 | 0.00 | 0.05 | 0.05 | 50 | 1019.7 |
| 20260905004601 | 27 | 283 | 0.0 | 4.8 | 0.00 | 0.05 | 0.05 | 51 | 1019.8 |
| 20260905004054 | 27 | 0 | 0.0 | 6.4 | 0.00 | 0.05 | 0.05 | 51 | 1019.8 |
| 20260905003556 | 27 | 283 | 0.0 | 6.4 | 0.00 | 0.05 | 0.05 | 51 | 1019.8 |
| 20260905003101 | 27 | 283 | 0.0 | 4.8 | 0.00 | 0.05 | 0.05 | 50 | 1019.8 |
| 20260905002553 | 27 | 0 | 0.0 | 4.8 | 0.00 | 0.05 | 0.05 | 51 | 1019.8 |
| 20260905002054 | 27 | 282 | 0.0 | 8.0 | 0.00 | 0.05 | 0.05 | 51 | 1019.7 |
| 20260905001605 | 28 | 283 | 1.6 | 9.7 | 0.00 | 0.05 | 0.05 | 52 | 1019.6 |
| 20260905001057 | 28 | 286 | 1.6 | 14.5 | 0.00 | 0.05 | 0.05 | 52 | 1019.5 |
| 20260905000554 | 28 | 286 | 4.8 | 14.5 | 0.00 | 0.05 | 0.05 | 52 | 1019.5 |
| 20260904235556 | 28 | 259 | 4.8 | 12.9 | 0.00 | 0.05 | 0.05 | 51 | 1019.3 |
| 20260904235059 | 28 | 285 | 3.2 | 12.9 | 0.03 | 0.05 | 0.05 | 52 | 1019.2 |
| 20260904234601 | 28 | 286 | 3.2 | 12.9 | 0.05 | 0.05 | 0.05 | 49 | 1019.1 |
| 20260904234057 | 28 | 300 | 1.6 | 12.9 | 0.05 | 0.05 | 0.05 | 49 | 1019.1 |
| 20260904233557 | 28 | 266 | 1.6 | 16.1 | 0.05 | 0.05 | 0.05 | 52 | 1019.1 |
| 20260904233100 | 28 | 288 | 4.8 | 16.1 | 0.05 | 0.05 | 0.05 | 51 | 1019.2 |
| 20260904232553 | 28 | 271 | 6.4 | 16.1 | 0.05 | 0.05 | 0.05 | 50 | 1019.2 |
| 20260904232053 | 28 | 317 | 6.4 | 12.9 | 0.05 | 0.05 | 0.05 | 52 | 1019.2 |
| 20260904231606 | 27 | 308 | 3.2 | 8.0 | 0.05 | 0.05 | 0.05 | 55 | 1019.2 |
| 20260904231055 | 27 | 300 | 1.6 | 6.4 | 0.05 | 0.05 | 0.05 | 56 | 1019.2 |
| 20260904230555 | 26 | 293 | 1.6 | 8.0 | 0.05 | 0.05 | 0.05 | 63 | 1019.4 |
| 20260904230105 | 26 | 310 | 0.0 | 11.3 | 0.05 | 0.05 | 0.05 | 67 | 1019.4 |
| 20260904225557 | 27 | 309 | 3.2 | 14.5 | 0.05 | 0.05 | 0.05 | 63 | 1019.5 |
| 20260904225057 | 27 | 287 | 8.0 | 14.5 | 0.03 | 0.03 | 0.03 | 58 | 1019.5 |
| 20260904224602 | 27 | 289 | 6.4 | 12.9 | 0.00 | 0.00 | 0.00 | 53 | 1019.6 |
| 20260904224100 | 27 | 322 | 4.8 | 14.5 | 0.00 | 0.00 | 0.00 | 54 | 1019.6 |
| 20260904223556 | 27 | 333 | 4.8 | 14.5 | 0.00 | 0.00 | 0.00 | 55 | 1019.7 |
| 20260904223104 | 28 | 296 | 8.0 | 14.5 | 0.00 | 0.00 | 0.00 | 54 | 1019.7 |
| 20260904222555 | 28 | 338 | 6.4 | 12.9 | 0.00 | 0.00 | 0.00 | 53 | 1019.7 |
| 20260904222055 | 28 | 326 | 4.8 | 12.9 | 0.00 | 0.00 | 0.00 | 51 | 1019.6 |
| 20260904221606 | 28 | 301 | 4.8 | 11.3 | 0.00 | 0.00 | 0.00 | 49 | 1019.8 |
| 20260904221058 | 28 | 328 | 4.8 | 12.9 | 0.00 | 0.00 | 0.00 | 48 | 1019.6 |
| 20260904220555 | 28 | 295 | 4.8 | 12.9 | 0.00 | 0.00 | 0.00 | 48 | 1019.7 |
| 20260904220109 | 28 | 311 | 6.4 | 11.3 | 0.00 | 0.00 | 0.00 | 51 | 1019.7 |
| 20260904215554 | 27 | 290 | 6.4 | 14.5 | 0.00 | 0.00 | 0.00 | 54 | 1019.6 |
| 20260904215058 | 27 | 320 | 8.0 | 14.5 | 0.00 | 0.00 | 0.00 | 55 | 1019.7 |
| 20260904214600 | 27 | 348 | 3.2 | 11.3 | 0.00 | 0.00 | 0.00 | 57 | 1019.8 |
| 20260904214056 | 26 | 291 | 6.4 | 11.3 | 0.00 | 0.00 | 0.00 | 58 | 1019.8 |
| 20260904213555 | 26 | 300 | 6.4 | 11.3 | 0.00 | 0.00 | 0.00 | 57 | 1019.9 |
| 20260904213109 | 26 | 315 | 6.4 | 11.3 | 0.00 | 0.00 | 0.00 | 59 | 1019.9 |
| 20260904212555 | 26 | 327 | 4.8 | 12.9 | 0.00 | 0.00 | 0.00 | 60 | 1020.1 |
| 20260904212055 | 26 | 295 | 4.8 | 12.9 | 0.00 | 0.00 | 0.00 | 59 | 1020.1 |
| 20260904211601 | 26 | 317 | 6.4 | 12.9 | 0.00 | 0.00 | 0.00 | 61 | 1020.1 |
| 20260904211055 | 27 | 288 | 6.4 | 20.9 | 0.00 | 0.00 | 0.00 | 60 | 1020.2 |
| 20260904210556 | 27 | 303 | 11.3 | 20.9 | 0.00 | 0.00 | 0.00 | 58 | 1020.2 |
| 20260904210104 | 27 | 290 | 9.7 | 16.1 | 0.00 | 0.00 | 0.00 | 56 | 1020.3 |
| 20260904205554 | 27 | 290 | 11.3 | 17.7 | 0.00 | 0.00 | 0.00 | 55 | 1020.3 |
| 20260904205055 | 28 | 283 | 8.0 | 17.7 | 0.00 | 0.00 | 0.00 | 53 | 1020.4 |
| 20260904204604 | 28 | 328 | 11.3 | 17.7 | 0.00 | 0.00 | 0.00 | 52 | 1020.3 |
| 20260904204059 | 28 | 359 | 1.6 | 4.8 | 0.00 | 0.00 | 0.00 | 48 | 1020.2 |
| 20260904203554 | 28 | 53 | 0.0 | 6.4 | 0.00 | 0.00 | 0.00 | 49 | 1020.3 |
| 20260904203104 | 28 | 53 | 3.2 | 9.7 | 0.00 | 0.00 | 0.00 | 48 | 1020.4 |
| 20260904202556 | 28 | 30 | 3.2 | 9.7 | 0.00 | 0.00 | 0.00 | 48 | 1020.4 |
| 20260904202054 | 28 | 27 | 4.8 | 9.7 | 0.00 | 0.00 | 0.00 | 48 | 1020.5 |
| 20260904201558 | 28 | 32 | 4.8 | 8.0 | 0.00 | 0.00 | 0.00 | 49 | 1020.5 |
| 20260904201054 | 28 | 30 | 3.2 | 8.0 | 0.00 | 0.00 | 0.00 | 51 | 1020.6 |
| 20260904200555 | 27 | 25 | 3.2 | 8.0 | 0.00 | 0.00 | 0.00 | 52 | 1020.7 |
| 20260904200105 | 27 | 355 | 3.2 | 8.0 | 0.00 | 0.00 | 0.00 | 52 | 1020.9 |
| 20260904195554 | 27 | 355 | 4.8 | 9.7 | 0.00 | 0.00 | 0.00 | 53 | 1020.9 |
| 20260904195059 | 27 | 360 | 4.8 | 9.7 | 0.00 | 0.00 | 0.00 | 53 | 1021.0 |
| 20260904194634 | 27 | 2 | 4.8 | 8.0 | 0.00 | 0.00 | 0.00 | 53 | 1021.0 |
| 20260904194055 | 27 | 356 | 3.2 | 8.0 | 0.00 | 0.00 | 0.00 | 52 | 1021.0 |
| 20260904193556 | 27 | 356 | 3.2 | 11.3 | 0.00 | 0.00 | 0.00 | 53 | 1021.1 |
| 20260904193103 | 27 | 348 | 4.8 | 11.3 | 0.00 | 0.00 | 0.00 | 52 | 1021.2 |
| 20260904192600 | 28 | 323 | 4.8 | 9.7 | 0.00 | 0.00 | 0.00 | 52 | 1021.4 |
| 20260904192056 | 28 | 299 | 3.2 | 9.7 | 0.00 | 0.00 | 0.00 | 52 | 1021.5 |
| 20260904191602 | 28 | 23 | 4.8 | 8.0 | 0.00 | 0.00 | 0.00 | 52 | 1021.5 |
| 20260904191054 | 27 | 32 | 3.2 | 8.0 | 0.00 | 0.00 | 0.00 | 55 | 1021.5 |
| 20260904190555 | 27 | 30 | 3.2 | 6.4 | 0.00 | 0.00 | 0.00 | 54 | 1021.5 |
| 20260904185555 | 27 | 0 | 3.2 | 8.0 | 0.00 | 0.00 | 0.00 | 54 | 1021.8 |
| 20260904185055 | 27 | 29 | 3.2 | 8.0 | 0.00 | 0.00 | 0.00 | 54 | 1021.8 |
| 20260904184604 | 27 | 65 | 1.6 | 6.4 | 0.00 | 0.00 | 0.00 | 54 | 1022.0 |
| 20260904184055 | 27 | 65 | 1.6 | 6.4 | 0.00 | 0.00 | 0.00 | 54 | 1022.0 |
| 20260904183555 | 27 | 0 | 1.6 | 6.4 | 0.00 | 0.00 | 0.00 | 54 | 1022.0 |
| 20260904183116 | 27 | 0 | 0.0 | 8.0 | 0.00 | 0.00 | 0.00 | 55 | 1022.0 |
| 20260904182556 | 27 | 46 | 4.8 | 11.3 | 0.00 | 0.00 | 0.00 | 55 | 1022.1 |
| 20260904182052 | 27 | 274 | 3.2 | 11.3 | 0.00 | 0.00 | 0.00 | 54 | 1022.1 |
| 20260904181610 | 27 | 0 | 3.2 | 9.7 | 0.00 | 0.00 | 0.00 | 55 | 1022.1 |
| 20260904181053 | 27 | 13 | 6.4 | 9.7 | 0.00 | 0.00 | 0.00 | 57 | 1022.1 |
| 20260904180554 | 26 | 356 | 4.8 | 8.0 | 0.00 | 0.00 | 0.00 | 59 | 1022.3 |
| 20260904180106 | 26 | 358 | 1.6 | 11.3 | 0.00 | 0.00 | 0.00 | 57 | 1022.3 |
| 20260904175555 | 26 | 359 | 1.6 | 11.3 | 0.00 | 0.00 | 0.00 | 57 | 1022.3 |
| 20260904175051 | 27 | 244 | 4.8 | 11.3 | 0.00 | 0.00 | 0.00 | 56 | 1022.3 |
| 20260904174604 | 27 | 189 | 1.6 | 8.0 | 0.00 | 0.00 | 0.00 | 56 | 1022.2 |
| 20260904174051 | 27 | 243 | 3.2 | 8.0 | 0.00 | 0.00 | 0.00 | 57 | 1022.3 |
| 20260904173552 | 26 | 292 | 3.2 | 8.0 | 0.00 | 0.00 | 0.00 | 57 | 1022.3 |
| 20260904173059 | 26 | 0 | 0.0 | 12.9 | 0.00 | 0.00 | 0.00 | 57 | 1022.4 |
| 20260904172555 | 26 | 304 | 6.4 | 12.9 | 0.00 | 0.00 | 0.00 | 57 | 1022.5 |
| 20260904172051 | 26 | 332 | 4.8 | 12.9 | 0.00 | 0.00 | 0.00 | 58 | 1022.4 |
| 20260904171621 | 27 | 47 | 4.8 | 14.5 | 0.00 | 0.00 | 0.00 | 56 | 1022.5 |
| 20260904171051 | 27 | 319 | 4.8 | 14.5 | 0.00 | 0.00 | 0.00 | 56 | 1022.6 |
| 20260904170550 | 27 | 312 | 8.0 | 14.5 | 0.00 | 0.00 | 0.00 | 56 | 1022.6 |
| 20260904170105 | 27 | 20 | 6.4 | 11.3 | 0.00 | 0.00 | 0.00 | 57 | 1022.6 |
| 20260904165552 | 27 | 352 | 4.8 | 11.3 | 0.00 | 0.00 | 0.00 | 59 | 1022.6 |
| 20260904165052 | 26 | 353 | 4.8 | 11.3 | 0.00 | 0.00 | 0.00 | 58 | 1022.6 |
| 20260904164608 | 26 | 284 | 1.6 | 8.0 | 0.00 | 0.00 | 0.00 | 59 | 1022.6 |
| 20260904164052 | 26 | 63 | 3.2 | 8.0 | 0.00 | 0.00 | 0.00 | 58 | 1022.4 |
| 20260904163552 | 26 | 29 | 3.2 | 12.9 | 0.00 | 0.00 | 0.00 | 60 | 1022.3 |
| 20260904163100 | 26 | 327 | 3.2 | 12.9 | 0.00 | 0.00 | 0.00 | 60 | 1022.4 |
| 20260904162554 | 26 | 44 | 3.2 | 9.7 | 0.00 | 0.00 | 0.00 | 62 | 1022.4 |
| 20260904162050 | 26 | 25 | 1.6 | 8.0 | 0.00 | 0.00 | 0.00 | 61 | 1022.4 |
| 20260904161605 | 25 | 58 | 3.2 | 8.0 | 0.00 | 0.00 | 0.00 | 61 | 1022.4 |
| 20260904161050 | 25 | 31 | 3.2 | 8.0 | 0.00 | 0.00 | 0.00 | 62 | 1022.4 |
| 20260904160552 | 25 | 14 | 4.8 | 8.0 | 0.00 | 0.00 | 0.00 | 64 | 1022.4 |
| 20260904160107 | 25 | 18 | 1.6 | 6.4 | 0.00 | 0.00 | 0.00 | 64 | 1022.4 |
| 20260904155551 | 25 | 18 | 3.2 | 6.4 | 0.00 | 0.00 | 0.00 | 65 | 1022.4 |
| 20260904155056 | 24 | 18 | 3.2 | 8.0 | 0.00 | 0.00 | 0.00 | 66 | 1022.4 |
| 20260904154604 | 24 | 18 | 1.6 | 9.7 | 0.00 | 0.00 | 0.00 | 69 | 1022.4 |
| 20260904154052 | 24 | 18 | 3.2 | 9.7 | 0.00 | 0.00 | 0.00 | 71 | 1022.5 |
| 20260904153552 | 24 | 18 | 1.6 | 6.4 | 0.00 | 0.00 | 0.00 | 73 | 1022.5 |
| 20260904153109 | 23 | 14 | 1.6 | 6.4 | 0.00 | 0.00 | 0.00 | 73 | 1022.4 |
| 20260904152551 | 23 | 14 | 1.6 | 4.8 | 0.00 | 0.00 | 0.00 | 73 | 1022.3 |
| 20260904152057 | 23 | 14 | 1.6 | 4.8 | 0.00 | 0.00 | 0.00 | 75 | 1022.4 |
| 20260904151606 | 22 | 14 | 1.6 | 4.8 | 0.00 | 0.00 | 0.00 | 77 | 1022.3 |
| 20260904151055 | 22 | 0 | 0.0 | 4.8 | 0.00 | 0.00 | 0.00 | 79 | 1022.3 |
| 20260904150555 | 22 | 14 | 1.6 | 4.8 | 0.00 | 0.00 | 0.00 | 80 | 1022.3 |
| 20260904145559 | 21 | 14 | 0.0 | 6.4 | 0.00 | 0.00 | 0.00 | 84 | 1022.3 |
| 20260904145057 | 21 | 14 | 3.2 | 6.4 | 0.00 | 0.00 | 0.00 | 85 | 1022.3 |
| 20260904144604 | 21 | 14 | 1.6 | 4.8 | 0.00 | 0.00 | 0.00 | 87 | 1022.3 |
| 20260904144054 | 20 | 14 | 1.6 | 4.8 | 0.00 | 0.00 | 0.00 | 87 | 1022.3 |
| 20260904143555 | 20 | 14 | 1.6 | 4.8 | 0.00 | 0.00 | 0.00 | 89 | 1022.2 |
| 20260904143136 | 20 | 14 | 0.0 | 3.2 | 0.00 | 0.00 | 0.00 | 90 | 1022.1 |
| 20260904142558 | 20 | 0 | 0.0 | 3.2 | 0.00 | 0.00 | 0.00 | 91 | 1022.1 |
| 20260904142056 | 19 | 14 | 0.0 | 1.6 | 0.00 | 0.00 | 0.00 | 91 | 1022.0 |
| 20260904141609 | 19 | 0 | 0.0 | 3.2 | 0.00 | 0.00 | 0.00 | 92 | 1022.1 |
| 20260904141054 | 19 | 0 | 0.0 | 3.2 | 0.00 | 0.00 | 0.00 | 92 | 1021.9 |
| 20260904140555 | 18 | 0 | 0.0 | 3.2 | 0.00 | 0.00 | 0.00 | 92 | 1021.9 |
| 20260904140104 | 18 | 14 | 0.0 | 4.8 | 0.00 | 0.00 | 0.00 | 93 | 1021.9 |
| 20260904135557 | 18 | 0 | 0.0 | 4.8 | 0.00 | 0.00 | 0.00 | 93 | 1021.9 |
| 20260904135055 | 18 | 14 | 0.0 | 3.2 | 0.00 | 0.00 | 0.00 | 93 | 1021.8 |
| 20260904134607 | 17 | 0 | 0.0 | 3.2 | 0.00 | 0.00 | 0.00 | 93 | 1021.7 |
| 20260904134100 | 17 | 0 | 1.6 | 3.2 | 0.00 | 0.00 | 0.00 | 92 | 1021.6 |
| 20260904133554 | 17 | 14 | 1.6 | 3.2 | 0.00 | 0.00 | 0.00 | 93 | 1021.6 |
| 20260904133105 | 17 | 0 | 0.0 | 3.2 | 0.00 | 0.00 | 0.00 | 92 | 1021.6 |
| 20260904132556 | 17 | 14 | 1.6 | 3.2 | 0.00 | 0.00 | 0.00 | 92 | 1021.5 |
| 20260904132054 | 17 | 0 | 0.0 | 3.2 | 0.00 | 0.00 | 0.00 | 92 | 1021.5 |
| 20260904131613 | 16 | 14 | 0.0 | 3.2 | 0.00 | 0.00 | 0.00 | 92 | 1021.5 |
| 20260904131054 | 16 | 14 | 0.0 | 1.6 | 0.00 | 0.00 | 0.00 | 92 | 1021.5 |
| 20260904130555 | 16 | 0 | 0.0 | 3.2 | 0.00 | 0.00 | 0.00 | 91 | 1021.4 |
| 20260904130104 | 16 | 0 | 0.0 | 3.2 | 0.00 | 0.00 | 0.00 | 91 | 1021.2 |
| 20260904125555 | 16 | 14 | 0.0 | 3.2 | 0.00 | 0.00 | 0.00 | 91 | 1021.2 |
| 20260904125056 | 16 | 14 | 0.0 | 3.2 | 0.00 | 0.00 | 0.00 | 91 | 1021.0 |
| 20260904124606 | 17 | 0 | 0.0 | 1.6 | 0.00 | 0.00 | 0.00 | 92 | 1021.1 |
| 20260904124056 | 17 | 14 | 0.0 | 0.0 | 0.00 | 0.00 | 0.00 | 91 | 1021.0 |
| 20260904123554 | 17 | 0 | 0.0 | 0.0 | 0.00 | 0.00 | 0.00 | 91 | 1021.0 |
| 20260904123104 | 17 | 0 | 0.0 | 0.0 | 0.00 | 0.00 | 0.00 | 91 | 1021.0 |
| 20260904122554 | 17 | 0 | 0.0 | 0.0 | 0.00 | 0.00 | 0.00 | 91 | 1021.0 |
| 20260904122054 | 17 | 0 | 0.0 | 0.0 | 0.00 | 0.00 | 0.00 | 91 | 1020.9 |
| 20260904121601 | 17 | 0 | 0.0 | 0.0 | 0.00 | 0.00 | 0.00 | 91 | 1020.8 |
| 20260904121221 | 17 | 0 | 0.0 | 3.2 | 0.00 | 0.00 | 0.00 | 91 | 1020.7 |
| 20260904120555 | 17 | 0 | 0.0 | 3.2 | 0.00 | 0.00 | 0.00 | 91 | 1020.6 |
| 20260904120109 | 17 | 14 | 0.0 | 4.8 | 0.00 | 0.00 | 0.00 | 91 | 1020.7 |
| 20260904115554 | 17 | 0 | 1.6 | 4.8 | 0.00 | 0.00 | 0.00 | 91 | 1020.6 |
| 20260904115055 | 17 | 14 | 1.6 | 4.8 | 0.00 | 0.00 | 0.00 | 91 | 1020.6 |
| 20260904114610 | 17 | 14 | 0.0 | 1.6 | 0.00 | 0.00 | 0.00 | 91 | 1020.5 |
| 20260904114054 | 17 | 0 | 0.0 | 3.2 | 0.00 | 0.00 | 0.00 | 91 | 1020.4 |
| 20260904113555 | 17 | 0 | 0.0 | 3.2 | 0.00 | 0.00 | 0.00 | 91 | 1020.4 |
| 20260904113103 | 17 | 0 | 1.6 | 4.8 | 0.00 | 0.00 | 0.00 | 91 | 1020.4 |
| 20260904112554 | 17 | 14 | 1.6 | 4.8 | 0.00 | 0.00 | 0.00 | 91 | 1020.4 |
| 20260904112054 | 17 | 14 | 1.6 | 4.8 | 0.00 | 0.00 | 0.00 | 90 | 1020.3 |
| 20260904111604 | 17 | 15 | 1.6 | 4.8 | 0.00 | 0.00 | 0.00 | 90 | 1020.4 |
| 20260904111055 | 17 | 18 | 1.6 | 4.8 | 0.00 | 0.00 | 0.00 | 90 | 1020.5 |
| 20260904110554 | 17 | 18 | 0.0 | 3.2 | 0.00 | 0.00 | 0.00 | 90 | 1020.4 |
| 20260904110116 | 17 | 0 | 0.0 | 0.0 | 0.00 | 0.00 | 0.00 | 90 | 1020.6 |
| 20260904105557 | 17 | 0 | 0.0 | 0.0 | 0.00 | 0.00 | 0.00 | 90 | 1020.5 |
| 20260904105057 | 17 | 0 | 0.0 | 0.0 | 0.00 | 0.00 | 0.00 | 90 | 1020.5 |
| 20260904104604 | 17 | 0 | 0.0 | 0.0 | 0.00 | 0.00 | 0.00 | 90 | 1020.4 |
| 20260904104055 | 17 | 0 | 0.0 | 0.0 | 0.00 | 0.00 | 0.00 | 90 | 1020.4 |
| 20260904103554 | 17 | 0 | 0.0 | 1.6 | 0.00 | 0.00 | 0.00 | 89 | 1020.4 |
| 20260904103107 | 17 | 0 | 0.0 | 1.6 | 0.00 | 0.00 | 0.00 | 90 | 1020.4 |
| 20260904102555 | 17 | 0 | 0.0 | 3.2 | 0.00 | 0.00 | 0.00 | 90 | 1020.5 |
| 20260904102054 | 18 | 18 | 0.0 | 3.2 | 0.00 | 0.00 | 0.00 | 89 | 1020.5 |
| 20260904101603 | 18 | 18 | 0.0 | 3.2 | 0.00 | 0.00 | 0.00 | 90 | 1020.4 |
| 20260904101057 | 18 | 0 | 0.0 | 3.2 | 0.00 | 0.00 | 0.00 | 90 | 1020.4 |
| 20260904100558 | 18 | 18 | 0.0 | 3.2 | 0.00 | 0.00 | 0.00 | 90 | 1020.4 |
| 20260904100127 | 18 | 0 | 0.0 | 4.8 | 0.00 | 0.00 | 0.00 | 90 | 1020.4 |
| 20260904095554 | 18 | 18 | 1.6 | 4.8 | 0.00 | 0.00 | 0.00 | 89 | 1020.3 |
| 20260904095056 | 18 | 15 | 1.6 | 4.8 | 0.00 | 0.00 | 0.00 | 89 | 1020.5 |
| 20260904094605 | 18 | 342 | 0.0 | 3.2 | 0.00 | 0.00 | 0.00 | 89 | 1020.4 |
| 20260904094055 | 18 | 0 | 0.0 | 3.2 | 0.00 | 0.00 | 0.00 | 89 | 1020.4 |
| 20260904093554 | 18 | 0 | 0.0 | 3.2 | 0.00 | 0.00 | 0.00 | 89 | 1020.6 |
| 20260904093104 | 18 | 342 | 0.0 | 3.2 | 0.00 | 0.00 | 0.00 | 89 | 1020.5 |
| 20260904092558 | 18 | 0 | 0.0 | 0.0 | 0.00 | 0.00 | 0.00 | 89 | 1020.5 |
| 20260904092056 | 18 | 0 | 0.0 | 1.6 | 0.00 | 0.00 | 0.00 | 89 | 1020.4 |
| 20260904091601 | 18 | 0 | 0.0 | 3.2 | 0.00 | 0.00 | 0.00 | 89 | 1020.4 |
| 20260904091055 | 18 | 0 | 0.0 | 3.2 | 0.00 | 0.00 | 0.00 | 89 | 1020.4 |
| 20260904090555 | 18 | 0 | 0.0 | 3.2 | 0.00 | 0.00 | 0.00 | 89 | 1020.4 |
| 20260904090105 | 18 | 342 | 0.0 | 3.2 | 0.00 | 0.00 | 0.00 | 89 | 1020.6 |
| 20260904085557 | 18 | 0 | 0.0 | 3.2 | 0.00 | 0.00 | 0.00 | 89 | 1020.5 |
| 20260904085055 | 18 | 0 | 0.0 | 3.2 | 0.00 | 0.00 | 0.00 | 88 | 1020.6 |
| 20260904084612 | 18 | 0 | 0.0 | 1.6 | 0.00 | 0.00 | 0.00 | 88 | 1020.5 |
| 20260904084058 | 18 | 0 | 0.0 | 3.2 | 0.00 | 0.00 | 0.00 | 88 | 1020.6 |
| 20260904083554 | 18 | 0 | 0.0 | 4.8 | 0.00 | 0.00 | 0.00 | 88 | 1020.6 |
| 20260904083104 | 18 | 342 | 0.0 | 4.8 | 0.00 | 0.00 | 0.00 | 88 | 1020.6 |
| 20260904082554 | 18 | 342 | 0.0 | 4.8 | 0.00 | 0.00 | 0.00 | 88 | 1020.5 |
| 20260904082055 | 18 | 0 | 1.6 | 4.8 | 0.00 | 0.00 | 0.00 | 87 | 1020.5 |
| 20260904081600 | 18 | 0 | 0.0 | 4.8 | 0.00 | 0.00 | 0.00 | 87 | 1020.6 |
| 20260904081054 | 18 | 342 | 1.6 | 4.8 | 0.00 | 0.00 | 0.00 | 87 | 1020.6 |
| 20260904080556 | 19 | 342 | 0.0 | 3.2 | 0.00 | 0.00 | 0.00 | 86 | 1020.6 |
| 20260904080107 | 19 | 342 | 0.0 | 6.4 | 0.00 | 0.00 | 0.00 | 86 | 1020.7 |
| 20260904075556 | 19 | 342 | 1.6 | 6.4 | 0.00 | 0.00 | 0.00 | 85 | 1020.6 |
| 20260904075054 | 19 | 342 | 1.6 | 6.4 | 0.00 | 0.00 | 0.00 | 85 | 1020.6 |
| 20260904074614 | 20 | 336 | 3.2 | 6.4 | 0.00 | 0.00 | 0.00 | 84 | 1020.6 |
| 20260904074055 | 20 | 338 | 3.2 | 8.0 | 0.00 | 0.00 | 0.00 | 83 | 1020.6 |
| 20260904073555 | 20 | 340 | 3.2 | 8.0 | 0.00 | 0.00 | 0.00 | 82 | 1020.7 |
| 20260904073117 | 20 | 348 | 0.0 | 6.4 | 0.00 | 0.00 | 0.00 | 82 | 1020.7 |
| 20260904072555 | 20 | 0 | 0.0 | 8.0 | 0.00 | 0.00 | 0.00 | 82 | 1020.7 |